Wind_Speed
19 19 19 20 20 19 19 19 20 20 20 20 20 20 21 21 20 20 20 20 20 20 19 19 18 18 18 18 18 18 17 18 18 18 18 18 19 20
20 20 20 21 21 20 21 21 21 21 20 20 20 21 22 21 21 21 20 20 20 20 19 19 18 18 18 18 17 18 18 18 17 18 18 19 19 20
21 21 21 22 21 21 22 22 23 22 21 20 21 22 22 22 22 21 21 21 21 20 20 19 18 18 18 18 18 18 18 18 18 18 18 18 19 20
22 23 23 23 23 23 23 23 23 23 22 22 22 22 23 23 22 22 22 21 21 21 20 20 20 19 20 19 18 18 18 19 19 18 18 18 19 20
23 23 23 23 24 24 24 24 24 24 24 24 24 24 23 23 23 22 22 22 22 21 21 20 20 20 20 20 19 19 19 19 19 19 19 19 19 19
25 24 25 25 25 25 25 25 24 24 24 25 25 24 24 24 23 23 23 23 23 22 21 21 21 20 20 20 21 21 21 21 21 20 20 19 20 20
25 25 25 25 25 25 25 25 25 24 24 24 25 24 25 25 25 24 23 23 22 22 22 22 22 22 21 20 20 20 21 21 22 22 21 21 21 21
25 25 25 25 25 25 25 25 24 25 25 26 26 25 25 25 25 25 25 23 22 23 24 24 24 23 22 22 21 20 20 20 21 22 21 22 22 22
24 25 25 25 25 25 25 25 26 26 26 26 27 27 27 26 26 26 25 24 23 24 24 25 25 24 23 23 22 21 21 21 21 22 22 23 23 22
24 24 24 24 24 24 25 25 26 26 26 27 27 26 26 26 26 26 25 24 24 24 24 24 25 24 23 23 22 22 21 21 21 21 21 22 22 22
23 24 24 24 25 25 26 26 27 27 27 26 26 25 25 25 26 26 26 25 24 24 24 24 24 24 24 23 22 22 21 21 22 22 22 23 23 23
24 24 24 25 26 26 27 27 26 26 26 25 25 25 25 25 25 26 26 26 24 24 24 24 24 24 23 24 23 23 22 22 23 23 23 24 24 24
24 24 25 25 25 26 26 26 25 26 25 24 24 24 24 25 26 26 26 26 25 24 24 24 23 24 24 24 23 23 23 23 24 24 24 24 25 25
25 25 25 25 25 25 25 25 25 25 24 24 24 24 25 25 25 25 25 24 25 25 24 24 23 23 24 24 24 23 24 24 24 25 25 25 25 25
24 24 25 24 24 24 24 24 24 24 24 23 24 24 25 25 25 24 24 24 24 24 24 24 24 24 24 25 24 24 24 25 24 25 25 25 25 25
25 25 24 23 23 24 24 23 23 24 24 24 24 24 24 24 23 22 22 23 24 24 25 25 25 25 26 25 25 25 25 25 24 24 25 26 26 26
24 24 24 23 23 23 24 23 23 24 24 25 24 24 24 23 22 22 22 23 24 24 24 24 25 25 25 25 25 24 24 25 25 25 25 25 26 26
22 21 22 23 23 23 22 22 23 22 23 23 23 23 23 22 22 23 22 22 22 23 23 23 23 24 24 24 24 24 24 25 25 25 26 26 26 27
21 21 21 22 22 23 23 23 22 22 22 22 22 22 22 22 22 21 21 21 21 21 22 23 23 23 25 25 25 25 25 25 25 25 26 26 26 27
21 21 21 21 21 21 22 22 21 21 22 22 21 21 21 22 22 22 21 21 21 21 21 22 23 23 24 24 24 25 25 25 25 26 26 26 27 27
21 21 21 21 20 20 21 21 21 21 21 21 21 21 21 22 22 21 21 21 21 21 21 22 22 23 24 24 24 24 25 25 26 26 26 27 28 28
20 20 20 20 21 21 21 20 20 20 20 20 21 21 22 21 21 20 20 20 20 21 21 21 22 23 24 24 24 24 24 24 25 26 26 27 27 28
18 18 18 19 20 20 20 20 19 19 19 19 20 21 22 22 21 20 20 19 20 21 21 21 22 23 23 23 23 23 24 24 24 25 26 26 27 28
Wind_Direction
275 276 276 277 276 277 276 277 278 281 283 280 277 276 276 276 277 277 276 277 279 277 275 275 276 274 273 271 269 269 268 265 265 267 267 264 262 263
274 274 275 275 274 275 275 277 277 280 283 279 274 274 276 276 276 275 276 277 278 278 275 275 275 273 270 270 270 269 265 265 266 268 268 268 267 266
273 273 275 275 275 275 275 276 277 278 280 279 277 274 274 275 275 275 275 275 275 275 277 276 274 271 270 270 271 270 266 265 266 267 267 268 268 270
275 274 274 275 274 275 276 277 279 278 278 278 278 276 275 275 275 275 275 275 274 274 274 274 274 270 269 270 270 268 266 266 265 264 265 268 269 271
274 274 274 274 274 275 276 278 279 279 277 276 276 275 275 274 274 274 275 275 273 272 273 273 274 270 268 269 269 268 265 265 265 265 265 266 269 270
275 275 275 275 275 275 276 277 277 278 277 276 275 274 273 272 272 273 272 272 272 269 272 273 273 271 269 268 268 267 265 265 265 265 263 263 266 268
275 275 276 276 276 276 276 277 276 276 276 276 276 274 272 273 272 271 271 271 272 270 271 271 271 268 267 268 269 269 268 266 264 264 262 263 265 267
275 275 275 275 275 277 276 275 276 277 276 275 275 273 271 270 270 271 270 270 270 270 270 269 267 265 265 267 268 268 269 266 264 263 263 263 265 266
275 275 274 274 275 275 275 276 277 277 277 277 275 273 271 268 268 269 269 268 269 269 269 269 267 268 267 268 269 269 268 266 266 265 265 263 264 266
277 277 276 277 277 276 276 276 276 277 277 277 276 275 272 269 267 267 267 268 268 268 268 269 268 268 269 270 270 271 269 267 266 266 266 266 267 268
278 278 277 277 276 276 277 278 279 280 279 279 277 277 275 273 272 269 268 267 267 268 268 268 267 267 268 268 269 270 268 265 265 265 266 266 266 267
279 279 279 278 277 277 278 278 278 279 278 278 277 276 275 274 274 272 270 266 267 267 267 266 266 265 266 267 268 269 269 266 264 264 265 264 265 266
280 279 279 280 279 279 278 277 278 278 277 275 275 275 274 274 274 273 272 268 266 265 265 264 265 265 266 266 266 268 268 267 265 264 265 266 265 265
280 280 279 279 278 278 278 277 278 278 276 275 274 275 274 274 273 272 270 267 265 265 265 264 263 263 265 265 266 267 267 266 263 262 264 266 265 267
282 280 278 277 276 277 278 278 279 277 275 274 275 275 274 275 274 272 268 266 265 265 264 264 262 263 264 265 266 268 268 268 266 264 263 264 265 267
282 279 276 276 276 278 279 279 278 278 275 274 275 277 278 276 272 270 269 267 266 265 265 263 262 264 265 266 266 267 268 269 269 268 266 265 265 268
283 279 276 275 277 279 280 278 277 276 275 276 276 278 278 275 271 270 269 268 267 266 264 262 264 265 266 265 265 267 268 268 269 269 267 267 268 270
281 280 278 277 277 278 278 278 276 275 275 274 276 276 276 275 273 271 268 268 268 267 264 262 263 264 265 264 266 267 268 268 269 271 270 270 271 271
281 279 280 280 278 276 276 276 274 273 273 273 274 275 276 275 273 271 269 269 269 267 265 263 264 267 267 267 270 269 268 269 269 272 275 274 273 272
282 280 279 280 278 276 275 274 273 272 272 273 273 274 276 275 273 272 272 271 268 267 268 266 266 267 269 271 272 271 270 270 271 273 274 275 274 273
281 279 278 277 277 276 278 276 273 272 272 272 271 272 274 273 271 272 272 270 269 270 270 271 270 270 270 271 272 271 270 271 272 273 274 275 277 277
283 280 279 277 277 277 280 278 276 274 273 272 272 272 272 274 273 273 272 270 269 271 273 274 273 273 274 273 273 272 272 273 275 276 276 277 278 279
283 282 281 280 279 279 278 279 278 276 276 276 275 274 273 273 272 271 270 270 271 272 274 276 277 276 277 276 277 276 276 276 277 277 277 277 277 279
Height
5844 5843 5843 5843 5842 5841 5841 5840 5840 5839 5838 5837 5836 5836 5835 5835 5834 5834 5833 5833 5832 5831 5831 5830 5829 5829 5828 5828 5827 5827 5827 5827 5827 5827 5827 5827 5828 5828
5838 5838 5837 5837 5836 5836 5835 5834 5834 5833 5832 5831 5831 5830 5829 5829 5829 5828 5828 5827 5827 5826 5825 5825 5824 5824 5823 5823 5822 5822 5822 5822 5822 5822 5822 5823 5823 5823
5832 5832 5831 5831 5830 5829 5829 5828 5827 5827 5826 5825 5825 5824 5824 5823 5823 5822 5822 5822 5821 5821 5820 5820 5819 5819 5818 5818 5818 5817 5817 5817 5818 5818 5818 5818 5818 5818
5825 5825 5824 5824 5823 5823 5822 5822 5821 5820 5820 5819 5819 5818 5817 5817 5816 5816 5816 5815 5815 5815 5814 5814 5814 5813 5813 5812 5812 5812 5812 5812 5813 5813 5813 5813 5813 5813
5818 5818 5817 5817 5816 5816 5815 5815 5814 5814 5813 5813 5812 5811 5811 5810 5810 5810 5810 5809 5809 5809 5808 5808 5808 5807 5807 5807 5807 5807 5807 5807 5807 5807 5808 5808 5808 5808
5811 5811 5810 5810 5809 5808 5808 5808 5807 5806 5805 5805 5805 5804 5804 5804 5804 5804 5803 5803 5802 5802 5802 5802 5801 5801 5801 5801 5801 5801 5801 5801 5802 5802 5802 5802 5802 5803
5804 5803 5803 5802 5802 5801 5801 5800 5800 5799 5798 5798 5798 5797 5797 5797 5797 5797 5796 5796 5796 5796 5795 5795 5795 5795 5795 5795 5795 5795 5795 5795 5795 5796 5796 5796 5797 5796
5796 5796 5796 5795 5795 5794 5794 5793 5793 5792 5791 5791 5790 5790 5790 5790 5790 5790 5789 5790 5790 5790 5789 5789 5789 5789 5789 5789 5789 5789 5789 5789 5789 5790 5790 5790 5790 5790
5789 5789 5788 5788 5787 5787 5786 5786 5785 5784 5784 5783 5782 5782 5782 5782 5783 5782 5782 5782 5783 5783 5782 5782 5782 5782 5782 5783 5783 5783 5783 5783 5783 5783 5784 5784 5784 5784
5782 5781 5781 5781 5780 5779 5779 5778 5777 5776 5776 5775 5774 5774 5773 5773 5774 5774 5775 5775 5775 5775 5775 5775 5775 5775 5776 5776 5776 5776 5777 5777 5777 5777 5777 5777 5778 5778
5775 5774 5774 5773 5773 5772 5771 5770 5769 5768 5767 5767 5766 5765 5765 5765 5765 5766 5766 5767 5767 5767 5768 5768 5768 5768 5769 5769 5769 5770 5770 5770 5771 5771 5771 5771 5771 5771
5768 5767 5767 5766 5765 5764 5763 5762 5762 5760 5760 5759 5759 5758 5758 5757 5758 5758 5758 5759 5759 5760 5760 5760 5761 5761 5762 5762 5762 5763 5763 5763 5764 5764 5764 5764 5764 5764
5761 5760 5759 5759 5758 5757 5756 5755 5754 5753 5752 5752 5751 5751 5750 5750 5750 5750 5751 5751 5752 5753 5753 5753 5754 5754 5755 5755 5756 5756 5756 5756 5756 5756 5757 5757 5757 5757
5753 5752 5752 5751 5750 5749 5749 5748 5747 5746 5745 5744 5744 5744 5743 5743 5743 5743 5743 5743 5744 5745 5745 5746 5746 5747 5747 5748 5748 5748 5748 5748 5749 5749 5749 5749 5749 5749
5746 5745 5744 5743 5743 5742 5742 5741 5740 5739 5738 5737 5737 5736 5736 5736 5736 5736 5736 5736 5736 5737 5737 5738 5739 5739 5740 5740 5741 5741 5741 5741 5741 5741 5741 5741 5741 5741
5739 5737 5737 5736 5736 5735 5734 5733 5732 5732 5731 5730 5730 5729 5729 5729 5729 5728 5728 5728 5729 5729 5729 5730 5731 5732 5732 5732 5733 5733 5733 5733 5733 5733 5733 5733 5733 5733
5732 5730 5730 5729 5729 5728 5727 5726 5726 5725 5724 5723 5723 5723 5722 5722 5721 5721 5721 5721 5721 5721 5722 5722 5723 5723 5724 5725 5725 5725 5726 5725 5725 5725 5725 5725 5725 5725
5725 5724 5723 5723 5722 5721 5720 5720 5719 5718 5717 5717 5717 5716 5715 5715 5715 5714 5714 5714 5714 5714 5714 5715 5715 5716 5716 5717 5718 5718 5718 5718 5717 5717 5716 5717 5716 5716
5718 5717 5717 5716 5715 5714 5714 5713 5712 5711 5711 5711 5710 5709 5708 5708 5708 5707 5707 5707 5707 5707 5707 5708 5708 5708 5709 5710 5710 5710 5710 5709 5709 5709 5708 5708 5708 5707
5711 5711 5710 5709 5708 5707 5707 5706 5705 5705 5704 5704 5704 5703 5702 5702 5701 5701 5700 5700 5700 5700 5700 5700 5701 5701 5702 5702 5702 5702 5702 5702 5701 5701 5700 5700 5699 5699
5705 5704 5703 5702 5701 5701 5700 5699 5699 5698 5698 5697 5697 5697 5696 5695 5694 5694 5694 5694 5694 5693 5693 5694 5694 5694 5693 5694 5694 5694 5694 5693 5693 5692 5692 5691 5691 5690
5698 5697 5696 5695 5695 5694 5693 5693 5692 5692 5691 5691 5690 5690 5689 5689 5688 5687 5687 5687 5687 5687 5687 5686 5686 5686 5686 5686 5686 5686 5685 5685 5684 5684 5683 5683 5682 5681
5692 5691 5690 5689 5688 5687 5687 5687 5686 5685 5685 5684 5684 5683 5682 5682 5682 5681 5681 5681 5680 5680 5680 5679 5679 5679 5678 5678 5677 5677 5677 5676 5675 5675 5675 5674 5673 5672